User: anonymous   Login
Location: Rio Negrinho
(26.2394°S, 49.4999°W)
Time: 10:37:28
(UTC+00:00)
Language:

SEDSat Delta rocket - Orbit

View from above orbital plane
View from above orbital plane
View from above satellite
View from above satellite

Ground track
Ground track

The orbit data is extracted from the following two-line orbital elements,

1 25510U 98061C   20226.78967537 +.00000221 +00000-0 +25512-4 0  9995
2 25510 031.4374 002.0881 0327417 234.0186 278.9581 14.37498933143924
Epoch (UTC): 13 August 2020 18:57:07
Eccentricity: 0.0327417
inclination: 31.4374°
perigee height: 533 km
apogee height: 1001 km
right ascension of ascending node: 2.0881°
argument of perigee: 234.0186°
revolutions per day: 14.37498933
mean anomaly at epoch: 278.9581°
orbit number at epoch: 14392

The dashed part of the orbit path shows where the satellite is in the earth's shadow,  

DLR